Change the Weather History Date:

Friday, December 27, 2013

  Actual Average Record
Temperature  
Mean Temperature 46 °F -  
Max Temperature 57 °F 54 °F 78 °F (2005)
Min Temperature 35 °F 36 °F 26 °F (2012)
Degree Days  
Heating Degree Days 19    
Moisture  
Dew Point 34 °F    
Average Humidity 73    
Maximum Humidity 93    
Minimum Humidity 36    
Precipitation  
Precipitation 0.00 in - - ()
Sea Level Pressure  
Sea Level Pressure 30.40 in    
Wind  
Wind Speed 0 mph (SE)    
Max Wind Speed 5 mph    
Max Gust Speed -    
Visibility 9 miles    
Events      
Averages and records for this station are not official NWS values.
T = Trace of Precipitation, MM = Missing Value Source: NWS Daily Summary

Daily Weather History Graph

Daily Weather History Graph

Search for Another Location

Airport or City:

Trip Planner

Search our weather history database for the weather conditions in past years. The results will help you decide how hot, cold, wet, or windy it might be!

Date:

Astronomy

Dec. 27, 2013 Rise Set
Actual Time 7:28 AM CST 5:28 PM CST
Civil Twilight 7:01 AM CST 5:55 PM CST
Nautical Twilight 6:30 AM CST 6:26 PM CST
Astronomical Twilight 6:00 AM CST 6:56 PM CST
Moon 2:12 AM CST (12/27) 1:30 PM CST (12/27)
Length of Visible Light 10h 54m
Length of Day
9h 59m
Waning Crescent, 28% of the Moon is Illuminated
Dec 27
Waning Crescent
Jan 1
New
Jan 7
First Quarter
Jan 15
Full
Jan 23
Last Quarter

Hourly Weather History & Observations

Time (CST) Temp. Dew Point Humidity Pressure Visibility Wind Dir Wind Speed Gust Speed Precip Events Conditions
12:15 AM 40.1 °F 33.6 °F 78% 30.41 in 10.0 mi Calm Calm - N/A   Clear
12:35 AM 39.0 °F 34.2 °F 83% 30.41 in 10.0 mi Calm Calm - N/A   Clear
12:55 AM 38.5 °F 33.6 °F 83% 30.41 in 10.0 mi Calm Calm - N/A   Clear
1:15 AM 38.3 °F 33.8 °F 84% 30.41 in 10.0 mi Calm Calm - N/A   Clear
1:35 AM 38.8 °F 33.6 °F 82% 30.40 in 10.0 mi Calm Calm - N/A   Clear
1:55 AM 38.7 °F 34.3 °F 84% 30.40 in 7.0 mi Calm Calm - N/A   Clear
2:15 AM 38.1 °F 33.6 °F 84% 30.41 in 10.0 mi Calm Calm - N/A   Clear
2:35 AM 37.9 °F 33.6 °F 84% 30.41 in 7.0 mi Calm Calm - N/A   Clear
2:55 AM 37.9 °F 33.8 °F 85% 30.41 in 10.0 mi Calm Calm - N/A   Clear
3:15 AM 36.9 °F 33.4 °F 87% 30.42 in 7.0 mi Calm Calm - N/A   Clear
3:35 AM 37.0 °F 33.3 °F 86% 30.42 in 7.0 mi Calm Calm - N/A   Clear
3:55 AM 36.7 °F 33.1 °F 87% 30.41 in 7.0 mi Calm Calm - N/A   Clear
4:15 AM 36.1 °F 32.9 °F 88% 30.41 in 7.0 mi Calm Calm - N/A   Clear
4:35 AM 36.0 °F 32.9 °F 89% 30.41 in 7.0 mi Calm Calm - N/A   Clear
4:55 AM 35.2 °F 32.5 °F 90% 30.41 in 7.0 mi Calm Calm - N/A   Clear
5:47 AM 35.6 °F 33.8 °F 93% 30.41 in 10.0 mi Calm Calm - N/A   Clear
6:51 AM 35.6 °F 32.0 °F 87% 30.42 in 10.0 mi Calm Calm - N/A   Clear
7:47 AM 37.4 °F 35.6 °F 93% 30.44 in 10.0 mi Calm Calm - N/A   Clear
8:47 AM 41.0 °F 35.6 °F 81% 30.45 in 7.0 mi Calm Calm - N/A   Clear
9:47 AM 46.4 °F 37.4 °F 71% 30.47 in 7.0 mi Calm Calm - N/A   Scattered Clouds
10:47 AM 50.0 °F 37.4 °F 62% 30.46 in 10.0 mi SSE 3.5 mph - N/A   Partly Cloudy
11:47 AM 53.6 °F 37.4 °F 54% 30.45 in 10.0 mi ESE 4.6 mph - N/A   Partly Cloudy
12:47 PM 53.6 °F 33.8 °F 47% 30.41 in 10.0 mi Calm Calm - N/A   Scattered Clouds
2:47 PM 57.2 °F 30.2 °F 36% 30.37 in 10.0 mi SSE 3.5 mph - N/A   Partly Cloudy
3:47 PM 57.2 °F 30.2 °F 36% 30.37 in 10.0 mi Calm Calm - N/A   Partly Cloudy
4:47 PM 55.4 °F 28.4 °F 36% 30.37 in 13.0 mi Calm Calm - N/A   Scattered Clouds
5:47 PM 51.8 °F 33.8 °F 50% 30.35 in 10.0 mi Calm Calm - N/A   Scattered Clouds
6:52 PM 51.8 °F 33.8 °F 50% 30.27 in 10.0 mi Calm Calm - N/A   Mostly Cloudy
9:15 PM 46.9 °F 35.8 °F 65% 30.37 in 10.0 mi Calm Calm - N/A   Clear
9:35 PM 45.5 °F 35.6 °F 68% 30.37 in 10.0 mi Calm Calm - N/A   Clear
9:42 PM 46.4 °F 35.6 °F 66% 30.37 in 13.0 mi Calm Calm - N/A   Scattered Clouds
9:55 PM 45.7 °F 35.8 °F 68% 30.37 in 10.0 mi Calm Calm - N/A   Clear
10:15 PM 46.6 °F 36.7 °F 68% 30.36 in 10.0 mi Calm Calm - N/A   Clear
10:35 PM 44.4 °F 36.5 °F 74% 30.36 in 10.0 mi Calm Calm - N/A   Clear
10:55 PM 45.3 °F 36.0 °F 70% 30.36 in 10.0 mi Calm Calm - N/A   Clear
11:15 PM 46.6 °F 36.9 °F 69% 30.36 in 10.0 mi Calm Calm - N/A   Clear
11:35 PM 45.5 °F 37.0 °F 72% 30.35 in 10.0 mi Calm Calm - N/A   Clear
11:55 PM 46.4 °F 37.4 °F 71% 30.35 in 10.0 mi Calm Calm - N/A   Clear